Weather History for Spencer, IA

Change the Weather History Date:

Tuesday, March 12, 2013

  Actual Average Record
Temperature  
Mean Temperature 26 °F -  
Max Temperature 30 °F 38 °F 69 °F (1990)
Min Temperature 21 °F 21 °F -8 °F (1975)
Degree Days  
Heating Degree Days 40    
Moisture  
Dew Point 20 °F    
Average Humidity 77    
Maximum Humidity 86    
Minimum Humidity 68    
Precipitation  
Precipitation 0.00 in - - ()
Sea Level Pressure  
Sea Level Pressure 30.07 in    
Wind  
Wind Speed 18 mph (NW)    
Max Wind Speed 26 mph    
Max Gust Speed 34 mph    
Visibility 5 miles    
Events Snow    
Averages and records for this station are not official NWS values.
T = Trace of Precipitation, MM = Missing Value Source: NWS Daily Summary

Daily Weather History Graph

Daily Weather History Graph

Search for Another Location

Airport:

Trip Planner

Search our weather history database for the weather conditions in past years. The results will help you decide how hot, cold, wet, or windy it might be!

Date:

Astronomy

Mar. 12, 2013 Rise Set
Actual Time 7:37 AM CDT 7:23 PM CDT
Civil Twilight 7:09 AM CDT 7:52 PM CDT
Nautical Twilight 6:36 AM CDT 8:25 PM CDT
Astronomical Twilight 6:03 AM CDT 8:58 PM CDT
Moon 7:42 AM CDT (3/12) 8:43 PM CDT (3/12)
Length of Visible Light 12h 42m
Length of Day
11h 46m
New Moon, 1% of the Moon is Illuminated
Mar 12
New Moon
Mar 19
First Quarter
Mar 27
Full
Apr 2
Last Quarter
Apr 10
New

Hourly Weather History & Observations

Time (CDT) Temp. Windchill Dew Point Humidity Pressure Visibility Wind Dir Wind Speed Gust Speed Precip Events Conditions
12:53 AM 28.0 °F 17.0 °F 21.0 °F 75% 29.97 in 10.0 mi WNW 13.8 mph - N/A   Overcast
1:22 AM 28.4 °F 19.7 °F 19.4 °F 69% 29.91 in 10.0 mi WNW 9.2 mph - N/A   Overcast
1:53 AM 26.1 °F 16.8 °F 19.9 °F 78% 29.97 in 10.0 mi West 9.2 mph - N/A   Mostly Cloudy
2:53 AM 21.9 °F 9.8 °F 18.0 °F 85% 29.99 in 10.0 mi West 12.7 mph - N/A   Clear
3:53 AM 23.0 °F 9.6 °F 18.0 °F 81% 29.97 in 10.0 mi West 16.1 mph - N/A   Clear
4:53 AM 23.0 °F 10.1 °F 19.0 °F 85% 29.97 in 9.0 mi West 15.0 mph - N/A   Scattered Clouds
5:53 AM 27.0 °F 16.1 °F 23.0 °F 85% 29.98 in 6.0 mi West 12.7 mph - 0.00 in Snow Light Snow
6:53 AM 28.0 °F 14.3 °F 23.0 °F 81% 29.98 in 10.0 mi WNW 21.9 mph 27.6 mph 0.00 in   Mostly Cloudy
7:24 AM 28.4 °F 14.4 °F 23.0 °F 80% 29.93 in 5.0 mi WNW 23.0 mph 33.4 mph 0.00 in Snow Light Snow
7:46 AM 28.4 °F 16.2 °F 24.8 °F 86% 29.94 in 2.5 mi WNW 17.3 mph - 0.00 in Snow Light Snow
7:53 AM 28.0 °F 14.6 °F 24.1 °F 85% 29.99 in 1.2 mi WNW 20.7 mph - 0.00 in Snow Light Snow
8:02 AM 28.4 °F 15.8 °F 24.8 °F 86% 29.94 in 3.0 mi WNW 18.4 mph - 0.00 in Snow Light Snow
8:53 AM 28.9 °F 15.8 °F 24.1 °F 82% 30.01 in 6.0 mi WNW 20.7 mph 26.5 mph 0.00 in Snow Light Snow
9:26 AM 28.4 °F 14.7 °F 24.8 °F 86% 29.97 in 1.8 mi WNW 21.9 mph 31.1 mph 0.00 in Snow Light Snow
9:33 AM 28.4 °F 14.1 °F 24.8 °F 86% 29.97 in 2.5 mi WNW 24.2 mph - 0.00 in Snow Light Snow
9:45 AM 28.4 °F 15.1 °F 24.8 °F 86% 29.97 in 3.0 mi WNW 20.7 mph 29.9 mph 0.00 in Snow Light Snow
9:53 AM 28.9 °F 14.5 °F 24.1 °F 82% 30.03 in 2.5 mi WNW 25.3 mph 29.9 mph 0.00 in Snow Light Snow
9:58 AM 28.4 °F 13.8 °F 24.8 °F 86% 29.97 in 3.0 mi WNW 25.3 mph 32.2 mph 0.00 in Snow Light Snow
10:12 AM 30.2 °F 15.9 °F 24.8 °F 80% 29.98 in 2.0 mi WNW 26.5 mph 31.1 mph 0.00 in Snow Light Snow
10:21 AM 28.4 °F 13.5 °F 24.8 °F 86% 29.98 in 1.5 mi WNW 26.5 mph 34.5 mph 0.00 in Snow Light Snow
10:41 AM 28.4 °F 15.4 °F 24.8 °F 86% 30.00 in 2.0 mi NW 19.6 mph 27.6 mph 0.00 in Snow Light Snow
10:47 AM 28.4 °F 17.5 °F 24.8 °F 86% 30.00 in 2.0 mi NNW 13.8 mph 25.3 mph 0.00 in Snow Light Snow
10:51 AM 28.4 °F 17.0 °F 24.8 °F 86% 30.00 in 1.8 mi NNW 15.0 mph - 0.00 in Snow Light Snow
10:53 AM 28.0 °F 17.5 °F 24.1 °F 85% 30.06 in 1.5 mi NNW 12.7 mph - 0.00 in Snow Light Snow
11:13 AM 26.6 °F 13.8 °F 21.2 °F 80% 30.02 in 2.0 mi NNW 17.3 mph - 0.00 in Snow Light Snow
11:23 AM 26.6 °F 11.4 °F 21.2 °F 80% 30.02 in 1.5 mi NNW 25.3 mph 29.9 mph 0.00 in Snow Light Snow
11:53 AM 26.1 °F 12.7 °F 19.9 °F 78% 30.10 in 2.0 mi NNW 18.4 mph 28.8 mph 0.00 in Snow Light Snow
12:03 PM 26.6 °F 11.7 °F 19.4 °F 74% 30.05 in 2.5 mi NNW 24.2 mph - 0.00 in Snow Light Snow
12:12 PM 26.6 °F 13.1 °F 19.4 °F 74% 30.05 in 4.0 mi NNW 19.6 mph - 0.00 in Snow Light Snow
12:53 PM 25.0 °F 9.2 °F 19.0 °F 78% 30.13 in 3.0 mi NNW 25.3 mph - 0.00 in Snow Light Snow
1:53 PM 26.1 °F 12.3 °F 18.0 °F 71% 30.15 in 5.0 mi NW 19.6 mph 29.9 mph 0.00 in Snow Light Snow
2:09 PM 26.6 °F 12.7 °F 17.6 °F 69% 30.10 in 4.0 mi NW 20.7 mph 26.5 mph 0.00 in Snow Light Snow
2:40 PM 26.6 °F 12.0 °F 19.4 °F 74% 30.10 in 2.0 mi NW 23.0 mph 29.9 mph 0.00 in Snow Light Snow
2:48 PM 26.6 °F 12.4 °F 19.4 °F 74% 30.10 in 3.0 mi NW 21.9 mph 31.1 mph 0.00 in Snow Light Snow
2:53 PM 27.0 °F 12.5 °F 18.0 °F 69% 30.16 in 6.0 mi NW 23.0 mph 31.1 mph 0.00 in Snow Light Snow
3:42 PM 26.6 °F 12.4 °F 17.6 °F 69% 30.11 in 2.0 mi NW 21.9 mph 31.1 mph 0.00 in Snow Light Snow
3:49 PM 26.6 °F 12.0 °F 17.6 °F 69% 30.11 in 1.5 mi NW 23.0 mph 31.1 mph 0.00 in Snow Light Snow
3:53 PM 26.1 °F 12.0 °F 18.0 °F 71% 30.17 in 2.5 mi NW 20.7 mph 29.9 mph 0.00 in Snow Light Snow
4:00 PM 26.6 °F 13.1 °F 17.6 °F 69% 30.11 in 4.0 mi NW 19.6 mph 31.1 mph 0.00 in Snow Light Snow
4:18 PM 26.6 °F 12.7 °F 19.4 °F 74% 30.12 in 2.0 mi NW 20.7 mph 27.6 mph 0.00 in Snow Light Snow
4:44 PM 26.6 °F 13.4 °F 17.6 °F 69% 30.12 in 4.0 mi NW 18.4 mph 31.1 mph 0.00 in Snow Light Snow
4:51 PM 26.6 °F 11.4 °F 17.6 °F 69% 30.12 in 4.0 mi NW 25.3 mph 32.2 mph 0.00 in Snow Light Snow
4:53 PM 25.0 °F 10.2 °F 18.0 °F 75% 30.18 in 3.0 mi NW 21.9 mph 32.2 mph 0.00 in Snow Light Snow
5:12 PM 26.6 °F 13.1 °F 17.6 °F 69% 30.13 in 7.0 mi NW 19.6 mph 27.6 mph 0.00 in Snow Light Snow
5:20 PM 26.6 °F 12.7 °F 17.6 °F 69% 30.13 in 6.0 mi NW 20.7 mph 31.1 mph 0.00 in Snow Light Snow
5:53 PM 26.1 °F 11.6 °F 17.1 °F 69% 30.19 in 10.0 mi NW 21.9 mph 28.8 mph 0.00 in   Overcast
6:53 PM 25.0 °F 10.9 °F 17.1 °F 72% 30.22 in 10.0 mi NW 19.6 mph 31.1 mph 0.00 in   Overcast
7:18 PM 24.8 °F 10.7 °F 17.6 °F 74% 30.17 in 10.0 mi NW 19.6 mph 28.8 mph 0.00 in   Overcast
7:53 PM 23.0 °F 9.2 °F 16.0 °F 74% 30.24 in 10.0 mi NW 17.3 mph - 0.00 in   Scattered Clouds
8:53 PM 23.0 °F 8.7 °F 15.1 °F 72% 30.26 in 10.0 mi NW 18.4 mph - N/A   Clear
9:53 PM 21.9 °F 7.8 °F 14.0 °F 72% 30.27 in 10.0 mi NW 17.3 mph 23.0 mph N/A   Clear
10:32 PM 23.0 °F 7.2 °F 14.0 °F 68% 30.23 in 10.0 mi NNW 23.0 mph 31.1 mph N/A   Mostly Cloudy
10:53 PM 21.9 °F 6.2 °F 15.1 °F 75% 30.30 in 10.0 mi NNW 21.9 mph - N/A   Mostly Cloudy
11:53 PM 21.0 °F 7.1 °F 14.0 °F 74% 30.31 in 10.0 mi NNW 16.1 mph - N/A   Overcast